Location: Unspecified
(0.0000°N, 0.0000°E)
Time: 06:57:42
(UTC+00:00)

Vanguard 2 Rocket - Pass Details

Date: 06 October 2023
Orbit: 552 x 3312 km, 32.9° (Epoch: 06 December)

Event Time Altitude Azimuth Distance (km) Brightness Sun altitude
Rises 10:04:06 0° 307° (NW) 5,591 10.7 63.5°
Reaches altitude 10° 10:10:00 10° 328° (NNW) 5,131 10.7 65.0°
Maximum altitude 10:18:36 16° 1° (N) 5,221 10.9 67.1°
Drops below altitude 10° 10:28:47 10° 34° (NE) 6,168 11.4 69.5°
Sets 10:37:26 0° 53° (NE) 7,288 11.7 71.6°
